{"data":{"norad_id":66787,"intl_designator":"2025-276EC","name":"LEMUR-2-MYRA","alt_names":[],"object_type":"PAYLOAD","status":"ACTIVE","operator":null,"country":"US","launch_date":"2025-11-28","launch_site_code":"AFWTR","launch_vehicle":null,"mission":null,"orbit_class":"UNKNOWN","rcs_meters":null,"size_class":null,"mass_kg":null,"dimensions":null,"purposes":["earth_obs"],"wikipedia_slug":null,"has_3d_model":false,"image_url":null,"decayed_at":null,"tle_current":{"epoch":"2026-05-25T02:43:49.237248Z","epoch_age_seconds":58606,"freshness":"FRESH","line1":"1 66787U 25276EC  26145.11376432  .00004877  00000+0  39689-3 0  9994","line2":"2 66787  97.5245 216.7557 0013837 218.4326 141.5914 14.99911092 26759","mean_motion":14.99911092,"eccentricity":0.0013837,"inclination_deg":97.5245,"raan_deg":216.7557,"arg_perigee_deg":218.4326,"mean_anomaly_deg":141.5914,"bstar":0.00039689,"rev_number":2675,"period_min":96.005690449284,"perigee_km":557.56056749803,"apogee_km":576.78101227576,"semimajor_km":6945.3077898869,"source":"CELESTRAK","updated_at":"2026-05-25T13:38:13.577605Z"}}}